Precipitable_Water
0.47 0.42 0.37 0.45 0.48 0.47 0.42 0.37 0.33 0.37 0.43 0.37 0.33 0.33 0.34 0.30 0.27 0.26 0.27 0.32 0.41 0.61 0.91 1.21 1.26 1.35 1.42 1.52 1.59 1.62 1.57 1.56 1.54 1.45 1.37 1.36 1.33 1.40 1.42 1.29 1.22 0.97 0.90 0.82
0.38 0.34 0.43 0.51 0.50 0.44 0.40 0.36 0.34 0.37 0.43 0.39 0.35 0.28 0.35 0.35 0.29 0.27 0.27 0.29 0.34 0.50 0.77 1.07 1.25 1.32 1.37 1.45 1.52 1.59 1.56 1.48 1.51 1.47 1.41 1.45 1.45 1.47 1.40 1.30 1.22 0.99 0.85 0.80
0.32 0.38 0.46 0.46 0.44 0.42 0.41 0.39 0.39 0.38 0.44 0.43 0.34 0.25 0.28 0.31 0.33 0.29 0.29 0.33 0.38 0.48 0.74 0.97 1.14 1.25 1.27 1.36 1.47 1.54 1.54 1.49 1.54 1.50 1.47 1.53 1.52 1.50 1.46 1.33 1.18 1.00 0.86 0.78
0.30 0.45 0.43 0.43 0.42 0.46 0.36 0.50 0.50 0.49 0.46 0.35 0.45 0.25 0.28 0.31 0.30 0.30 0.34 0.39 0.49 0.58 0.77 0.86 1.08 1.36 1.35 1.45 1.57 1.57 1.48 1.55 1.64 1.55 1.52 1.48 1.42 1.38 1.40 1.28 1.19 1.05 0.91 0.79
0.25 0.38 0.43 0.37 0.43 0.53 0.47 0.56 0.54 0.55 0.50 0.46 0.44 0.34 0.28 0.34 0.28 0.35 0.39 0.43 0.49 0.74 0.85 0.88 1.04 1.27 1.31 1.36 1.70 1.57 1.55 1.54 1.62 1.64 1.53 1.50 1.42 1.46 1.40 1.28 1.20 1.14 0.96 0.81
0.28 0.49 0.47 0.44 0.47 0.54 0.60 0.56 0.54 0.48 0.45 0.33 0.41 0.32 0.26 0.37 0.43 0.43 0.45 0.48 0.50 0.76 0.99 1.11 1.20 1.30 1.25 1.26 1.37 1.52 1.50 1.64 1.65 1.60 1.55 1.50 1.48 1.39 1.27 1.20 1.18 1.12 0.96 0.82
0.25 0.33 0.45 0.48 0.38 0.49 0.54 0.48 0.33 0.29 0.32 0.32 0.47 0.36 0.30 0.45 0.52 0.51 0.46 0.49 0.57 0.71 0.95 1.03 1.02 1.10 1.14 1.28 1.41 1.47 1.52 1.41 1.40 1.54 1.58 1.55 1.50 1.38 1.27 1.23 1.18 1.02 0.86 0.77
0.19 0.17 0.33 0.39 0.37 0.40 0.47 0.48 0.36 0.25 0.28 0.33 0.49 0.38 0.35 0.52 0.60 0.63 0.58 0.60 0.68 0.80 0.90 0.97 0.97 1.08 1.12 1.28 1.42 1.51 1.54 1.40 1.49 1.65 1.57 1.41 1.42 1.36 1.27 1.20 1.05 0.91 0.81 0.75
0.19 0.20 0.31 0.38 0.39 0.42 0.42 0.41 0.58 0.41 0.41 0.34 0.38 0.46 0.52 0.62 0.64 0.64 0.60 0.65 0.73 0.81 0.99 1.03 1.11 1.15 1.26 1.38 1.43 1.45 1.42 1.50 1.54 1.49 1.46 1.40 1.31 1.18 1.09 0.99 0.98 0.88 0.80 0.82
0.25 0.18 0.26 0.32 0.40 0.43 0.41 0.54 0.41 0.43 0.27 0.25 0.31 0.35 0.39 0.54 0.64 0.72 0.76 0.72 0.82 0.93 0.99 1.05 1.17 1.23 1.28 1.29 1.35 1.42 1.46 1.45 1.45 1.35 1.24 1.13 1.08 1.05 0.99 0.96 0.84 0.81 0.83 0.76
0.25 0.23 0.21 0.27 0.29 0.30 0.30 0.33 0.49 0.48 0.43 0.30 0.26 0.30 0.47 0.47 0.59 0.63 0.80 0.89 0.88 0.96 0.96 0.95 1.00 1.07 1.11 1.16 1.21 1.22 1.21 1.17 1.10 1.06 1.01 0.99 0.94 0.91 0.87 0.81 0.81 0.79 0.76 0.78
0.26 0.23 0.18 0.21 0.32 0.34 0.31 0.33 0.44 0.36 0.34 0.40 0.38 0.33 0.49 0.47 0.51 0.63 0.65 0.75 0.89 0.93 0.92 0.91 0.95 0.98 1.02 1.02 1.03 0.99 0.99 1.01 0.98 0.96 0.92 0.85 0.82 0.81 0.76 0.78 0.75 0.71 0.72 0.66
0.24 0.21 0.14 0.17 0.21 0.29 0.27 0.36 0.38 0.40 0.44 0.31 0.31 0.33 0.49 0.50 0.48 0.52 0.65 0.65 0.66 0.72 0.78 0.82 0.83 0.82 0.84 0.87 0.87 0.89 0.89 0.85 0.84 0.83 0.82 0.81 0.78 0.71 0.68 0.65 0.64 0.58 0.52 0.49
0.27 0.20 0.17 0.16 0.20 0.27 0.25 0.28 0.31 0.29 0.22 0.25 0.26 0.29 0.36 0.47 0.48 0.50 0.53 0.58 0.65 0.65 0.64 0.66 0.69 0.74 0.76 0.75 0.76 0.74 0.73 0.76 0.75 0.73 0.71 0.66 0.64 0.60 0.55 0.50 0.47 0.44 0.43 0.44
0.26 0.14 0.19 0.23 0.28 0.29 0.28 0.28 0.29 0.26 0.26 0.20 0.25 0.27 0.31 0.40 0.44 0.48 0.55 0.57 0.57 0.58 0.60 0.63 0.66 0.67 0.67 0.68 0.68 0.69 0.67 0.65 0.65 0.62 0.57 0.51 0.48 0.46 0.44 0.43 0.43 0.45 0.46 0.45
0.22 0.12 0.19 0.19 0.27 0.28 0.28 0.28 0.27 0.27 0.24 0.28 0.29 0.30 0.40 0.42 0.45 0.45 0.46 0.46 0.46 0.47 0.49 0.51 0.53 0.54 0.55 0.56 0.56 0.56 0.55 0.51 0.49 0.46 0.44 0.43 0.42 0.42 0.43 0.45 0.45 0.44 0.41 0.38
0.23 0.20 0.20 0.17 0.23 0.27 0.24 0.24 0.25 0.22 0.23 0.23 0.23 0.30 0.39 0.38 0.40 0.41 0.43 0.45 0.44 0.46 0.46 0.47 0.47 0.47 0.46 0.45 0.45 0.44 0.44 0.44 0.43 0.40 0.40 0.40 0.42 0.42 0.43 0.42 0.39 0.34 0.30 0.29
0.26 0.26 0.25 0.20 0.22 0.17 0.25 0.29 0.26 0.24 0.25 0.26 0.26 0.29 0.31 0.34 0.37 0.38 0.41 0.39 0.39 0.38 0.38 0.39 0.40 0.41 0.42 0.42 0.42 0.41 0.41 0.39 0.38 0.38 0.39 0.41 0.41 0.38 0.35 0.30 0.28 0.28 0.29 0.29
0.36 0.28 0.25 0.21 0.21 0.24 0.26 0.28 0.25 0.25 0.22 0.30 0.28 0.27 0.27 0.29 0.32 0.32 0.37 0.38 0.38 0.38 0.40 0.41 0.42 0.42 0.41 0.39 0.38 0.38 0.37 0.36 0.38 0.39 0.38 0.36 0.32 0.29 0.28 0.27 0.27 0.29 0.30 0.30
0.38 0.35 0.29 0.26 0.20 0.16 0.26 0.29 0.31 0.28 0.20 0.32 0.33 0.28 0.28 0.31 0.22 0.27 0.35 0.39 0.41 0.41 0.42 0.41 0.40 0.39 0.39 0.38 0.38 0.36 0.37 0.39 0.36 0.33 0.31 0.30 0.29 0.26 0.26 0.28 0.29 0.31 0.31 0.31
0.36 0.36 0.30 0.28 0.23 0.24 0.34 0.32 0.31 0.19 0.22 0.31 0.34 0.34 0.32 0.25 0.27 0.32 0.37 0.39 0.43 0.43 0.42 0.42 0.40 0.39 0.39 0.38 0.37 0.37 0.37 0.32 0.31 0.30 0.28 0.27 0.28 0.29 0.30 0.31 0.32 0.32 0.32 0.32
0.36 0.35 0.33 0.33 0.28 0.21 0.37 0.35 0.27 0.31 0.34 0.33 0.35 0.36 0.35 0.35 0.36 0.36 0.38 0.40 0.42 0.42 0.42 0.42 0.38 0.37 0.37 0.36 0.37 0.35 0.30 0.30 0.29 0.27 0.26 0.27 0.29 0.31 0.32 0.32 0.32 0.31 0.29 0.27
0.36 0.40 0.36 0.38 0.36 0.44 0.45 0.40 0.40 0.37 0.35 0.36 0.36 0.40 0.40 0.38 0.36 0.38 0.38 0.40 0.42 0.43 0.43 0.41 0.37 0.36 0.36 0.38 0.37 0.29 0.29 0.28 0.27 0.26 0.26 0.28 0.30 0.31 0.32 0.30 0.29 0.27 0.27 0.27
0.43 0.48 0.42 0.42 0.43 0.44 0.45 0.46 0.44 0.41 0.37 0.37 0.40 0.42 0.42 0.40 0.40 0.39 0.40 0.41 0.42 0.43 0.43 0.40 0.37 0.34 0.36 0.38 0.33 0.30 0.29 0.29 0.27 0.26 0.27 0.29 0.30 0.30 0.30 0.29 0.29 0.29 0.28 0.27
0.38 0.39 0.38 0.39 0.44 0.46 0.48 0.46 0.44 0.43 0.43 0.41 0.41 0.43 0.43 0.43 0.42 0.40 0.40 0.42 0.43 0.44 0.44 0.39 0.35 0.36 0.39 0.36 0.31 0.30 0.29 0.28 0.26 0.26 0.27 0.28 0.28 0.27 0.28 0.29 0.29 0.30 0.33 0.35
0.43 0.41 0.38 0.38 0.45 0.44 0.44 0.48 0.49 0.46 0.45 0.45 0.42 0.41 0.44 0.45 0.43 0.42 0.42 0.44 0.45 0.45 0.44 0.39 0.37 0.39 0.38 0.33 0.30 0.29 0.29 0.27 0.26 0.25 0.26 0.26 0.26 0.25 0.25 0.26 0.28 0.34 0.37 0.39
Wind_Speed
15 14 15 16 14 14 16 17 19 21 21 23 26 29 28 27 26 27 27 28 31 34 35 34 34 34 33 31 29 27 24 22 24 21 22 18 17 17 16 15 15 14 13 12
18 14 14 13 12 14 14 15 17 17 18 22 24 29 27 28 29 28 28 28 30 30 31 33 35 35 34 33 31 30 27 21 21 22 21 20 19 17 17 17 17 15 15 15
15 12 15 14 14 14 14 14 15 18 17 17 20 29 25 27 28 28 27 26 29 30 29 31 34 35 33 34 33 31 28 26 24 23 23 21 20 19 19 17 20 17 17 17
15 13 13 14 15 14 16 14 18 20 18 16 14 22 21 23 25 26 23 22 26 28 30 30 32 35 32 31 33 32 29 27 26 24 23 22 20 20 20 19 19 18 17 17
17 14 12 13 14 16 16 20 18 20 19 14 15 13 13 16 19 21 22 22 22 28 29 30 31 31 30 28 30 32 29 28 28 25 24 22 20 19 19 18 19 18 17 17
14 13 11 13 16 17 20 19 20 13 11 8 12 7 6 6 13 19 20 21 21 26 27 28 28 28 27 27 29 28 28 28 28 25 25 22 20 19 17 17 18 19 18 18
16 13 13 14 17 17 19 20 13 15 16 14 13 8 4 4 6 12 17 18 19 22 25 25 25 26 26 27 27 27 27 27 27 26 26 22 22 21 17 17 18 18 18 19
14 15 14 16 15 14 17 16 14 11 14 14 17 9 4 4 5 6 10 13 16 20 21 20 22 23 24 25 25 25 25 24 23 22 24 19 19 18 18 17 18 19 20 20
13 11 15 14 14 14 15 17 11 10 10 13 15 12 10 7 4 1 5 10 14 19 18 16 16 17 19 19 20 19 19 18 19 19 19 17 18 17 16 17 18 18 20 21
13 13 12 15 13 14 12 10 11 11 12 12 13 15 15 14 7 2 5 9 11 15 15 14 14 13 14 15 15 15 15 14 15 15 15 15 15 15 16 16 18 19 21 22
13 10 14 13 11 13 13 12 11 8 10 10 10 12 16 15 12 9 7 6 11 12 11 10 11 12 12 12 13 13 13 13 12 12 12 12 13 13 14 16 17 19 21 23
12 9 13 10 10 10 12 11 10 9 9 8 7 9 13 14 14 12 11 12 10 11 9 8 8 8 8 9 9 10 10 10 10 10 10 10 12 13 14 16 19 21 23 26
11 9 12 13 10 10 11 11 9 8 7 9 8 7 10 11 12 12 12 11 9 8 8 7 6 6 6 6 6 6 6 7 7 8 9 10 12 14 16 19 21 23 25 28
9 7 6 7 8 9 10 13 10 6 6 6 5 6 7 7 8 8 9 8 8 7 7 6 5 5 4 4 5 5 5 6 7 8 10 12 14 17 18 20 23 26 28 31
8 9 8 9 10 9 9 8 8 7 6 4 5 5 6 4 5 5 5 6 6 5 5 5 5 4 4 3 3 4 5 6 8 10 12 14 16 18 21 24 27 29 31 34
11 9 10 10 5 9 5 7 6 6 6 4 4 5 5 4 4 4 4 4 4 4 4 4 4 3 2 3 4 5 6 8 10 12 14 16 19 21 24 27 30 32 34 36
10 7 8 7 9 8 4 6 5 5 5 4 3 3 2 3 3 2 1 2 2 2 2 3 3 3 3 5 6 7 9 11 12 14 16 19 22 24 27 29 32 34 36 37
8 6 6 7 8 4 5 4 3 3 5 4 3 3 1 0 1 1 2 2 1 2 2 2 3 4 5 7 8 9 10 12 14 16 18 21 24 26 29 32 34 36 37 38
8 6 7 6 7 8 6 5 4 4 5 4 2 2 1 0 1 2 3 3 2 2 3 4 5 6 6 7 8 9 11 13 15 18 21 23 26 29 32 34 36 37 38 36
6 8 7 6 6 7 6 5 5 4 7 5 3 3 3 3 3 4 3 2 2 2 3 4 5 6 7 9 9 10 12 14 17 20 23 26 29 32 34 35 36 37 33 28
8 9 10 10 9 11 10 7 6 5 7 5 4 5 4 5 6 4 3 3 3 4 5 6 7 8 9 9 9 11 13 17 20 23 26 28 30 32 34 34 34 30 24 21
11 9 10 9 9 12 9 8 8 8 7 7 6 7 6 6 5 5 5 4 4 5 6 7 8 9 9 9 10 13 16 19 22 25 27 29 30 32 32 31 29 24 21 20
14 14 13 12 11 11 11 10 10 9 8 8 8 8 7 7 7 7 7 6 6 7 7 8 9 8 8 9 12 14 18 21 23 25 26 28 29 30 31 29 25 21 20 21
17 15 16 15 16 16 15 14 13 13 12 11 11 10 9 9 9 8 8 8 7 8 8 9 8 8 9 11 13 16 19 21 23 25 27 28 30 31 30 27 22 21 21 22
19 19 20 21 21 20 18 17 16 15 14 13 12 12 12 10 10 10 10 9 9 8 9 8 7 8 10 12 15 18 20 22 23 25 27 29 30 30 28 26 22 22 23 24
21 24 23 25 22 20 18 16 17 16 16 15 14 13 13 13 12 11 11 10 10 9 9 8 8 9 11 13 16 19 21 22 23 25 28 29 30 30 29 26 23 23 24 24
Wind_Direction
343 342 325 311 312 307 302 298 288 286 281 273 265 260 257 254 248 245 242 239 234 232 230 226 223 221 221 220 219 216 216 222 232 234 230 233 238 242 244 249 238 244 243 242
351 342 342 339 330 329 320 315 308 302 290 279 270 265 256 250 244 242 241 238 235 229 227 224 222 221 221 221 221 219 221 230 234 231 229 238 239 243 246 248 243 240 244 249
351 351 351 358 347 340 332 317 315 305 298 287 279 267 259 252 243 239 240 239 232 226 223 220 221 220 222 222 221 221 225 234 230 234 233 237 241 245 248 254 244 247 250 252
353 350 349 352 350 348 337 329 319 313 310 294 288 283 258 249 242 232 236 237 230 222 220 220 218 218 218 220 222 224 228 229 232 235 234 238 247 248 250 249 244 245 249 252
347 351 351 355 357 354 336 331 323 319 308 313 304 282 253 246 236 227 230 232 233 221 215 215 215 217 220 228 218 221 226 232 234 235 236 241 249 248 248 252 238 236 246 253
351 356 4 359 353 350 341 352 349 14 5 343 345 305 268 222 235 232 231 230 230 216 212 211 213 215 226 225 227 226 228 232 232 235 239 242 238 255 250 244 243 241 248 259
359 358 355 1 352 359 7 8 12 19 22 10 345 355 273 267 252 233 230 229 218 211 213 212 212 219 222 222 225 226 226 241 242 236 235 243 243 260 253 253 247 244 256 262
1 355 2 359 359 354 11 16 21 11 12 10 23 20 19 310 264 234 214 213 207 204 208 212 218 219 222 224 227 225 232 236 240 235 231 246 254 266 252 252 250 254 261 267
354 345 350 353 356 8 6 15 24 26 22 25 34 44 42 40 39 138 194 191 194 192 196 201 210 213 215 217 221 227 234 233 236 245 259 259 263 257 254 258 257 259 266 269
352 340 347 348 2 12 7 24 18 22 20 28 24 39 32 36 29 46 149 167 179 189 194 201 202 202 207 214 222 227 229 234 243 254 260 262 257 255 259 261 263 267 270 272
353 352 341 351 3 1 7 9 18 34 27 25 21 31 30 34 45 59 102 174 185 184 181 191 203 210 214 214 219 227 240 247 250 255 256 256 258 260 264 266 270 273 275 279
345 347 343 337 338 352 5 8 24 36 8 25 34 23 32 37 45 59 73 96 123 152 168 171 182 193 204 209 214 226 236 241 245 250 254 258 262 266 273 274 278 280 281 283
340 347 347 354 3 5 7 3 8 24 23 16 36 21 32 40 45 57 80 89 98 108 125 147 159 171 180 189 204 215 228 241 247 253 259 266 272 275 279 282 283 285 286 288
337 337 336 332 316 334 342 342 349 15 22 2 12 11 25 44 50 59 71 83 91 100 110 124 137 153 170 189 199 214 230 240 253 261 270 276 280 283 285 286 288 289 290 291
332 319 320 313 307 323 312 324 357 19 358 30 8 27 17 54 57 69 79 87 97 107 114 120 133 147 158 178 204 225 246 257 266 274 279 282 285 287 289 290 291 292 293 293
322 312 328 319 321 334 321 348 1 2 2 20 31 22 9 52 61 69 93 97 105 113 120 132 147 163 191 221 243 254 263 270 277 282 285 287 290 292 294 295 295 295 296 296
300 300 325 304 323 324 339 333 343 1 357 337 337 358 5 25 45 48 126 145 150 159 164 172 196 224 247 261 265 271 273 279 284 287 290 293 295 297 298 298 298 298 298 298
284 291 298 297 321 306 293 333 348 8 350 357 3 356 359 358 356 345 281 201 187 187 204 223 242 263 273 277 280 279 282 287 291 294 297 299 300 300 301 301 300 300 299 298
261 284 292 295 297 294 285 280 283 291 309 319 332 324 317 213 324 338 328 235 231 237 254 261 268 275 281 284 283 287 291 294 298 301 302 303 304 304 304 303 303 301 300 299
268 275 275 286 288 277 277 277 294 298 294 276 281 273 259 277 303 284 304 248 257 269 274 277 286 289 288 289 288 293 297 302 305 306 307 307 308 308 307 307 306 304 302 298
270 274 263 270 274 282 268 269 275 280 276 267 268 270 266 274 277 270 265 271 267 271 283 289 294 297 294 287 291 300 304 307 309 310 311 311 312 311 312 311 310 307 302 297
258 261 267 266 268 276 259 267 255 266 271 269 272 273 276 277 274 261 259 260 263 274 288 294 298 300 295 290 298 306 310 311 313 314 315 315 316 316 316 316 313 307 301 299
269 260 266 255 262 265 266 263 264 261 263 267 267 270 267 265 266 257 260 261 267 276 287 296 297 299 299 299 305 311 313 315 317 318 319 320 320 320 320 318 312 305 303 302
270 270 266 271 267 265 263 265 262 260 261 263 263 264 261 264 257 258 257 262 268 278 289 295 292 294 301 307 313 316 317 319 320 321 322 323 323 322 321 317 310 305 304 304
267 271 269 268 267 270 265 258 260 259 261 263 261 261 259 258 255 252 257 257 263 276 288 291 289 295 305 311 317 320 321 321 322 324 325 325 325 324 322 316 307 306 305 305
268 264 262 266 260 260 258 263 253 253 257 258 258 260 258 256 252 252 253 255 259 270 279 286 289 299 308 314 319 322 324 324 325 327 328 328 328 325 322 316 307 306 309 309